Location: Peebles
(55.6412°N, 3.1714°W)
Time: 15:22:41
(UTC+01:00)

Okean 2 Rocket - Pass Details

Date: 26 September 2021
Orbit: 617 x 640 km, 82.5° (Epoch: 17 October)

Event Time Altitude Azimuth Distance (km) Brightness Sun altitude
Exits shadow 21:57:05 12° 214° (SW) 1,870 5.5 -24.2°
Maximum altitude 22:01:03 48° 288° (WNW) 816 4.0 -24.6°
Drops below altitude 10° 22:05:21 10° 4° (N) 2,003 6.1 -25.1°
Sets 22:07:40 0° 10° (N) 2,917 6.9 -25.4°
